Back to catalog

STARLINK-3116

AliveCommunicationsVLEO
NORAD 49146·PAYLOAD·🇺🇸 United States

Launched Sep 14, 2021 from Vandenberg Space Force Base

Loading…

Next Passes (next 24 hours)

TLE

FreshSource: CelesTrak SupGP

Epoch: Sep 14, 2026, 13:19 UTC

1 49146C 21082S   26257.55534722  .00060797  00000+0  52034-2 0  2573
2 49146  70.0011 159.6497 0002635 268.8942   4.8586 14.97485824    15

Track STARLINK-3116 in real time with AllMySat

Download on the App Store